Retour au catalogue

STARLINK-11706

ActifCommunicationsVLEO
NORAD 63753·PAYLOAD·🇺🇸 United States

Lancé Apr 29, 2025 depuis Cape Canaveral Space Force Station

Loading…

Prochains Passages (prochaines 24 heures)

TLE

FraisSource: CelesTrak SupGP

Époque: Sep 15, 2026, 03:20 UTC

1 63753C 25089C   26258.13937500 -.00100790  00000+0 -78256-3 0  2586
2 63753  43.0006 230.0201 0001445 266.6945 113.9854 15.70896189    15

Suivez STARLINK-11706 en temps réel avec AllMySat

Download on the App Store